Time,TemperatureF,DewpointF,PressureIn,WindDirection,WindDirectionDegrees,WindSpeedMPH,WindSpeedGustMPH,Humidity,HourlyPrecipIn,Conditions,Clouds,dailyrainin,SoftwareType,DateUTC
2013-07-09 00:04:00,74.2,73.0,29.98,South,172,0.0,-999.0,95,-99.99,,,0.68,weatherlink.com 1.10,2013-07-09 04:04:00,
2013-07-09 00:19:00,73.6,72.0,29.98,SSW,210,0.0,-999.0,95,-99.99,,,0.00,weatherlink.com 1.10,2013-07-09 04:19:00,
2013-07-09 00:34:00,73.5,72.0,29.97,SE,136,0.0,-999.0,96,-99.99,,,0.00,weatherlink.com 1.10,2013-07-09 04:34:00,
2013-07-09 00:49:00,73.3,72.0,29.97,SSE,159,0.0,-999.0,96,-99.99,,,0.00,weatherlink.com 1.10,2013-07-09 04:49:00,
2013-07-09 01:04:00,73.1,72.0,29.97,SSE,162,0.0,-999.0,96,-99.99,,,0.00,weatherlink.com 1.10,2013-07-09 05:04:00,
2013-07-09 01:19:00,73.0,72.0,29.96,ESE,119,0.0,-999.0,97,-99.99,,,0.00,weatherlink.com 1.10,2013-07-09 05:19:00,
2013-07-09 01:34:00,72.8,72.0,29.96,ESE,111,0.0,-999.0,97,-99.99,,,0.00,weatherlink.com 1.10,2013-07-09 05:34:00,
2013-07-09 01:49:00,72.7,72.0,29.96,ESE,115,0.0,-999.0,97,-99.99,,,0.00,weatherlink.com 1.10,2013-07-09 05:49:00,
2013-07-09 02:04:00,72.5,72.0,29.95,SSE,160,0.0,-999.0,97,-99.99,,,0.00,weatherlink.com 1.10,2013-07-09 06:04:00,
2013-07-09 02:19:00,72.3,71.0,29.95,SW,226,2.0,-999.0,97,-99.99,,,0.00,weatherlink.com 1.10,2013-07-09 06:19:00,
2013-07-09 02:34:00,72.2,71.0,29.95,SSW,207,2.0,-999.0,97,-99.99,,,0.00,weatherlink.com 1.10,2013-07-09 06:34:00,
2013-07-09 02:49:00,72.2,71.0,29.95,ESE,113,0.0,-999.0,97,-99.99,,,0.00,weatherlink.com 1.10,2013-07-09 06:49:00,
2013-07-09 03:04:00,72.2,71.0,29.95,SSW,211,0.0,-999.0,97,-99.99,,,0.00,weatherlink.com 1.10,2013-07-09 07:04:00,
2013-07-09 03:19:00,72.3,72.0,29.95,South,174,2.0,-999.0,98,-99.99,,,0.00,weatherlink.com 1.10,2013-07-09 07:19:00,
2013-07-09 03:34:00,72.3,72.0,29.95,SW,229,1.0,-999.0,98,-99.99,,,0.00,weatherlink.com 1.10,2013-07-09 07:34:00,
2013-07-09 04:04:00,72.0,71.0,29.95,South,184,0.0,-999.0,97,-99.99,,,0.00,weatherlink.com 1.10,2013-07-09 08:04:00,
2013-07-09 04:19:00,71.9,71.0,29.95,SSW,208,0.0,-999.0,97,-99.99,,,0.00,weatherlink.com 1.10,2013-07-09 08:19:00,
2013-07-09 04:34:00,71.8,71.0,29.95,SSW,208,0.0,-999.0,98,-99.99,,,0.00,weatherlink.com 1.10,2013-07-09 08:34:00,
2013-07-09 04:49:00,71.5,71.0,29.95,SSW,210,0.0,-999.0,98,-99.99,,,0.00,weatherlink.com 1.10,2013-07-09 08:49:00,
2013-07-09 05:04:00,71.8,71.0,29.94,SW,218,2.0,-999.0,98,-99.99,,,0.00,weatherlink.com 1.10,2013-07-09 09:04:00,
2013-07-09 05:19:00,71.6,71.0,29.95,SW,232,0.0,-999.0,98,-99.99,,,0.00,weatherlink.com 1.10,2013-07-09 09:19:00,
2013-07-09 05:34:00,-999.0,-99.9,29.95,North,-999,-999.0,-999.0,-999,-99.99,,,0.01,weatherlink.com 1.10,2013-07-09 09:34:00,
2013-07-09 05:49:00,-999.0,-99.9,29.94,North,-999,-999.0,-999.0,-999,-99.99,,,0.01,weatherlink.com 1.10,2013-07-09 09:49:00,
2013-07-09 06:04:00,-999.0,-99.9,29.95,North,-999,-999.0,-999.0,-999,-99.99,,,0.01,weatherlink.com 1.10,2013-07-09 10:04:00,
2013-07-09 06:19:00,-999.0,-99.9,29.95,North,-999,-999.0,-999.0,-999,-99.99,,,0.01,weatherlink.com 1.10,2013-07-09 10:19:00,
2013-07-09 06:34:00,-999.0,-99.9,29.95,North,-999,-999.0,-999.0,-999,-99.99,,,0.01,weatherlink.com 1.10,2013-07-09 10:34:00,
2013-07-09 06:49:00,-999.0,-99.9,29.96,North,-999,-999.0,-999.0,-999,-99.99,,,0.01,weatherlink.com 1.10,2013-07-09 10:49:00,
2013-07-09 07:04:00,72.5,72.0,29.96,West,277,1.0,-999.0,98,-99.99,,,0.01,weatherlink.com 1.10,2013-07-09 11:04:00,
2013-07-09 07:19:00,72.5,72.0,29.96,WNW,289,0.0,-999.0,98,-99.99,,,0.01,weatherlink.com 1.10,2013-07-09 11:19:00,
2013-07-09 07:34:00,72.7,72.0,29.96,WSW,238,0.0,-999.0,98,-99.99,,,0.01,weatherlink.com 1.10,2013-07-09 11:34:00,
2013-07-09 07:49:00,72.9,72.0,29.96,West,262,0.0,-999.0,98,-99.99,,,0.01,weatherlink.com 1.10,2013-07-09 11:49:00,
2013-07-09 08:04:00,73.2,73.0,29.96,WSW,245,0.0,-999.0,98,-99.99,,,0.01,weatherlink.com 1.10,2013-07-09 12:04:00,
2013-07-09 08:19:00,73.4,73.0,29.96,SW,219,0.0,-999.0,98,-99.99,,,0.01,weatherlink.com 1.10,2013-07-09 12:19:00,
2013-07-09 08:34:00,73.7,73.0,29.96,WNW,284,0.0,-999.0,98,-99.99,,,0.01,weatherlink.com 1.10,2013-07-09 12:34:00,
2013-07-09 08:49:00,73.6,73.0,29.97,West,278,1.0,-999.0,97,-99.99,,,0.01,weatherlink.com 1.10,2013-07-09 12:49:00,
2013-07-09 09:04:00,73.6,73.0,29.97,SW,232,0.0,-999.0,97,-99.99,,,0.01,weatherlink.com 1.10,2013-07-09 13:04:00,
2013-07-09 09:19:00,73.9,73.0,29.97,West,280,1.0,-999.0,97,-99.99,,,0.01,weatherlink.com 1.10,2013-07-09 13:19:00,
2013-07-09 09:34:00,74.4,73.0,29.97,WNW,283,0.0,-999.0,96,-99.99,,,0.01,weatherlink.com 1.10,2013-07-09 13:34:00,
2013-07-09 09:49:00,74.4,73.0,29.97,West,273,2.0,-999.0,95,-99.99,,,0.01,weatherlink.com 1.10,2013-07-09 13:49:00,
2013-07-09 10:04:00,74.7,73.0,29.97,WSW,252,6.0,-999.0,95,-99.99,,,0.01,weatherlink.com 1.10,2013-07-09 14:04:00,
2013-07-09 10:19:00,74.8,73.0,29.97,West,267,3.0,-999.0,95,-99.99,,,0.01,weatherlink.com 1.10,2013-07-09 14:19:00,
2013-07-09 10:34:00,75.2,73.0,29.97,WNW,303,3.0,-999.0,94,-99.99,,,0.01,weatherlink.com 1.10,2013-07-09 14:34:00,
2013-07-09 10:49:00,75.6,74.0,29.97,West,267,3.0,-999.0,93,-99.99,,,0.01,weatherlink.com 1.10,2013-07-09 14:49:00,
2013-07-09 11:04:00,76.1,74.0,29.97,WNW,293,3.0,-999.0,92,-99.99,,,0.01,weatherlink.com 1.10,2013-07-09 15:04:00,
2013-07-09 11:20:00,78.8,75.0,29.96,WNW,291,2.0,-999.0,88,-99.99,,,0.01,weatherlink.com 1.10,2013-07-09 15:20:00,
2013-07-09 11:34:00,80.4,75.0,29.96,WNW,290,3.0,-999.0,83,-99.99,,,0.01,weatherlink.com 1.10,2013-07-09 15:34:00,
2013-07-09 11:49:00,81.1,76.0,29.96,WNW,300,0.0,-999.0,83,-99.99,,,0.01,weatherlink.com 1.10,2013-07-09 15:49:00,
2013-07-09 12:04:00,82.2,75.0,29.96,WNW,287,6.0,-999.0,78,-99.99,,,0.01,weatherlink.com 1.10,2013-07-09 16:04:00,
2013-07-09 12:19:00,83.4,76.0,29.96,SSW,200,2.0,-999.0,78,-99.99,,,0.01,weatherlink.com 1.10,2013-07-09 16:19:00,
2013-07-09 12:34:00,84.7,77.0,29.96,South,181,1.0,-999.0,77,-99.99,,,0.01,weatherlink.com 1.10,2013-07-09 16:34:00,
2013-07-09 12:49:00,85.2,77.0,29.95,WNW,294,3.0,-999.0,76,-99.99,,,0.01,weatherlink.com 1.10,2013-07-09 16:49:00,
2013-07-09 13:04:00,85.7,76.0,29.95,SW,215,1.0,-999.0,73,-99.99,,,0.01,weatherlink.com 1.10,2013-07-09 17:04:00,
2013-07-09 13:19:00,86.0,76.0,29.95,NW,314,2.0,-999.0,73,-99.99,,,0.01,weatherlink.com 1.10,2013-07-09 17:19:00,
2013-07-09 13:34:00,86.3,76.0,29.94,WNW,293,1.0,-999.0,72,-99.99,,,0.01,weatherlink.com 1.10,2013-07-09 17:34:00,
2013-07-09 13:49:00,87.2,76.0,29.94,West,271,3.0,-999.0,70,-99.99,,,0.01,weatherlink.com 1.10,2013-07-09 17:49:00,
2013-07-09 14:04:00,87.2,76.0,29.93,NW,319,2.0,-999.0,70,-99.99,,,0.01,weatherlink.com 1.10,2013-07-09 18:04:00,
2013-07-09 14:19:00,86.9,76.0,29.93,West,274,5.0,-999.0,71,-99.99,,,0.01,weatherlink.com 1.10,2013-07-09 18:19:00,
2013-07-09 14:34:00,86.4,77.0,29.93,WSW,257,3.0,-999.0,73,-99.99,,,0.01,weatherlink.com 1.10,2013-07-09 18:34:00,
2013-07-09 14:49:00,87.8,78.0,29.93,WNW,283,8.0,-999.0,72,-99.99,,,0.01,weatherlink.com 1.10,2013-07-09 18:49:00,
2013-07-09 15:04:00,88.2,78.0,29.92,West,274,8.0,-999.0,71,-99.99,,,0.01,weatherlink.com 1.10,2013-07-09 19:04:00,
2013-07-09 15:19:00,88.8,79.0,29.91,SSW,195,2.0,-999.0,72,-99.99,,,0.01,weatherlink.com 1.10,2013-07-09 19:19:00,
2013-07-09 15:34:00,90.0,78.0,29.90,South,179,0.0,-999.0,68,-99.99,,,0.01,weatherlink.com 1.10,2013-07-09 19:34:00,
2013-07-09 15:49:00,90.0,78.0,29.90,SSW,195,2.0,-999.0,68,-99.99,,,0.01,weatherlink.com 1.10,2013-07-09 19:49:00,
2013-07-09 16:04:00,90.5,78.0,29.89,WNW,300,2.0,-999.0,67,-99.99,,,0.01,weatherlink.com 1.10,2013-07-09 20:04:00,
2013-07-09 16:19:00,89.6,78.0,29.89,WNW,293,1.0,-999.0,69,-99.99,,,0.01,weatherlink.com 1.10,2013-07-09 20:19:00,
2013-07-09 16:34:00,88.4,78.0,29.89,SSW,201,0.0,-999.0,71,-99.99,,,0.01,weatherlink.com 1.10,2013-07-09 20:34:00,
2013-07-09 16:49:00,85.6,78.0,29.90,West,275,1.0,-999.0,78,-99.99,,,0.01,weatherlink.com 1.10,2013-07-09 20:49:00,
2013-07-09 17:04:00,82.9,71.0,29.91,NE,41,13.0,-999.0,67,-99.99,,,0.01,weatherlink.com 1.10,2013-07-09 21:04:00,
2013-07-09 17:19:00,78.5,70.0,29.90,SSW,205,5.0,-999.0,75,-99.99,,,0.01,weatherlink.com 1.10,2013-07-09 21:19:00,
2013-07-09 17:34:00,74.2,71.0,29.91,WSW,248,10.0,-999.0,88,-99.99,,,0.02,weatherlink.com 1.10,2013-07-09 21:34:00,
2013-07-09 17:49:00,74.0,71.0,29.90,WSW,257,4.0,-999.0,90,-99.99,,,0.02,weatherlink.com 1.10,2013-07-09 21:49:00,
2013-07-09 18:04:00,74.1,71.0,29.90,West,262,0.0,-999.0,91,-99.99,,,0.03,weatherlink.com 1.10,2013-07-09 22:04:00,
2013-07-09 18:19:00,74.1,72.0,29.90,WNW,284,3.0,-999.0,92,-99.99,,,0.06,weatherlink.com 1.10,2013-07-09 22:19:00,
2013-07-09 18:34:00,74.3,72.0,29.89,WNW,290,5.0,-999.0,92,-99.99,,,0.07,weatherlink.com 1.10,2013-07-09 22:34:00,
2013-07-09 18:49:00,74.3,72.0,29.89,West,281,5.0,-999.0,92,-99.99,,,0.07,weatherlink.com 1.10,2013-07-09 22:49:00,
2013-07-09 19:04:00,74.2,72.0,29.88,NW,304,4.0,-999.0,93,-99.99,,,0.08,weatherlink.com 1.10,2013-07-09 23:04:00,
2013-07-09 19:19:00,74.2,72.0,29.87,SW,233,3.0,-999.0,94,-99.99,,,0.09,weatherlink.com 1.10,2013-07-09 23:19:00,
2013-07-09 19:34:00,74.4,73.0,29.88,WNW,288,1.0,-999.0,94,-99.99,,,0.09,weatherlink.com 1.10,2013-07-09 23:34:00,
2013-07-09 19:49:00,74.4,72.0,29.87,WNW,287,1.0,-999.0,93,-99.99,,,0.10,weatherlink.com 1.10,2013-07-09 23:49:00,
2013-07-09 20:04:00,74.5,73.0,29.88,SW,225,2.0,-999.0,94,-99.99,,,0.10,weatherlink.com 1.10,2013-07-10 00:04:00,
2013-07-09 20:19:00,74.2,73.0,29.88,SSW,205,1.0,-999.0,95,-99.99,,,0.10,weatherlink.com 1.10,2013-07-10 00:19:00,
2013-07-09 20:34:00,74.1,73.0,29.88,SW,217,2.0,-999.0,95,-99.99,,,0.10,weatherlink.com 1.10,2013-07-10 00:34:00,
2013-07-09 20:49:00,74.1,72.0,29.88,SW,219,0.0,-999.0,94,-99.99,,,0.10,weatherlink.com 1.10,2013-07-10 00:49:00,
2013-07-09 21:04:00,74.0,73.0,29.89,SW,232,0.0,-999.0,95,-99.99,,,0.10,weatherlink.com 1.10,2013-07-10 01:04:00,
2013-07-09 21:19:00,73.8,72.0,29.89,SSE,158,0.0,-999.0,95,-99.99,,,0.10,weatherlink.com 1.10,2013-07-10 01:19:00,
2013-07-09 21:34:00,73.6,72.0,29.89,SSW,201,1.0,-999.0,95,-99.99,,,0.10,weatherlink.com 1.10,2013-07-10 01:34:00,
2013-07-09 21:49:00,73.6,72.0,29.90,SSW,197,4.0,-999.0,95,-99.99,,,0.10,weatherlink.com 1.10,2013-07-10 01:49:00,
2013-07-09 22:04:00,73.6,72.0,29.90,South,174,4.0,-999.0,95,-99.99,,,0.10,weatherlink.com 1.10,2013-07-10 02:04:00,
2013-07-09 22:19:00,73.7,72.0,29.90,South,184,3.0,-999.0,95,-99.99,,,0.10,weatherlink.com 1.10,2013-07-10 02:19:00,
2013-07-09 22:34:00,73.9,72.0,29.90,SSW,205,5.0,-999.0,94,-99.99,,,0.10,weatherlink.com 1.10,2013-07-10 02:34:00,
2013-07-09 22:49:00,74.1,72.0,29.90,SW,215,6.0,-999.0,94,-99.99,,,0.10,weatherlink.com 1.10,2013-07-10 02:49:00,
2013-07-09 23:04:00,74.2,72.0,29.89,South,183,3.0,-999.0,94,-99.99,,,0.10,weatherlink.com 1.10,2013-07-10 03:04:00,
2013-07-09 23:19:00,74.3,73.0,29.89,SSW,213,2.0,-999.0,95,-99.99,,,0.10,weatherlink.com 1.10,2013-07-10 03:19:00,
2013-07-09 23:34:00,74.3,73.0,29.89,South,188,2.0,-999.0,95,-99.99,,,0.11,weatherlink.com 1.10,2013-07-10 03:34:00,
2013-07-09 23:49:00,74.1,73.0,29.87,SSE,158,0.0,-999.0,96,-99.99,,,0.11,weatherlink.com 1.10,2013-07-10 03:49:00,